Effective Sunday, March 17, 2024, the National Weather Service National Data Buoy Center will discontinue its Dial-A-Buoy Interactive Voice Response system. For more information, see Service Change Notice 24-06 (PDF).

Station FPKG1 - 8670870 - Fort Pulaski, GA Image indicating link to RSS feed of recent meteorological observations for station FPKG1


Conditions at FPKG1 as of
(9:18 pm EST on 02/23/2024)
0218 GMT on 02/24/2024:
     

Click on the graph icon in the table below to see a time series plot of the last five days of that observation.

5-day plot - Wind Direction Wind Direction (WDIR): NW ( 310 deg true )
5-day plot - Wind Speed Wind Speed (WSPD): 9.9 kts
5-day plot - Wind Gust Wind Gust (GST): 11.1 kts
5-day plot - Atmospheric Pressure Atmospheric Pressure (PRES):29.71 in
5-day plot - Air Temperature Air Temperature (ATMP): 61.0 °F
5-day plot - Water Temperature Water Temperature (WTMP): 56.7 °F
5-day plot - Wind Speed at 10 Meters Wind Speed at 10 meters (WSPD10M): 9.7 kts
5-day plot - Wind Speed at 20 Meters Wind Speed at 20 meters (WSPD20M): 11.7 kts
5-day plot -  Wind Speed, Wind Gust and Atmospheric Pressure Combined plot of Wind Speed, Gust, and Air Pressure
NOS Water Level Observation Network Water Level
Previous observations
TIME
(EST)
5-day plot - Wind Direction
WDIR
 
5-day plot - Wind Speed
WSPD
kts
5-day plot - Wind Gust
GST
kts
5-day plot - Wave Height
WVHT
ft
5-day plot - Dominant Wave Period
DPD
sec
5-day plot - Average Wave Period
APD
sec
5-day plot - Mean Wave Direction
MWD
 
5-day plot - Atmospheric Pressure
PRES
in
5-day plot - Pressure Tendency
PTDY
in
5-day plot - Air Temperature
ATMP
°F
5-day plot - Water Temperature
WTMP
°F
5-day plot - Dew Point
DEWP
°F
5-day plot - Salinity
SAL
psu
5-day plot - Visibility
VIS
nmi
5-day plot - Tide (above MLLW)
TIDE
ft
2024-02-23 09:12 pm NW 9.9 12.0----29.71- 61.5 56.7----
2024-02-23 09:06 pm NW 11.1 13.0----29.70- 61.7 56.7----
2024-02-23 09:00 pm NW 11.1 13.0----29.70+0.09 61.7 56.7----
2024-02-23 08:54 pm NW 12.0 14.0----29.70- 62.1 56.7----
2024-02-23 08:48 pm NW 12.0 14.0----29.70- 62.4 56.7----
2024-02-23 08:42 pmWNW 11.1 14.0----29.69- 62.4 56.3----
2024-02-23 08:36 pm NW 12.0 14.0----29.69- 62.6 56.3----
2024-02-23 08:30 pm NW 12.0 15.0----29.69-------
2024-02-23 08:24 pm NW 11.1 13.0----29.68-------
2024-02-23 08:18 pmWNW 8.9 11.1----29.68-- 56.3----
2024-02-23 08:12 pmWNW 6.0 8.0----29.68-- 56.3----
2024-02-23 08:06 pmWNW 6.0 8.0----29.67-- 56.5----
2024-02-23 08:00 pmWNW 5.1 6.0----29.67+0.07- 56.5----
2024-02-23 07:54 pmWNW 5.1 5.1----29.67-- 56.3----
2024-02-23 07:48 pmWNW 5.1 6.0----29.66-- 56.3----
2024-02-23 07:42 pmWNW 5.1 5.1----29.66-- 56.3----
2024-02-23 07:36 pmWNW 5.1 6.0----29.65-- 56.1----
2024-02-23 07:30 pmWNW 6.0 8.0----29.65-- 56.1----
2024-02-23 07:24 pmWNW 6.0 7.0----29.65-- 56.1----
2024-02-23 07:18 pmWNW 7.0 8.0----29.64-- 56.1----
2024-02-23 07:12 pmWNW 7.0 8.0----29.64-- 55.9----
2024-02-23 07:06 pmWNW 7.0 8.0----29.63-- 55.9----
2024-02-23 07:00 pmWNW 8.0 8.0----29.63+0.04------
2024-02-23 06:54 pmWNW 6.0 8.0----29.62-------
2024-02-23 06:48 pmWNW 8.0 8.0----29.62- 62.1 55.9----
2024-02-23 06:42 pm NW 8.9 9.9----29.62- 63.0 55.9----
2024-02-23 06:36 pm NW 8.0 8.9----29.62- 63.9 55.9----
2024-02-23 06:30 pm NW 9.9 12.0----29.62- 64.6 55.9----
2024-02-23 06:24 pm NW 8.9 11.1----29.62- 65.1 55.8----
2024-02-23 06:18 pm NW 8.0 8.9----29.62-- 55.8----
2024-02-23 06:12 pm NW 8.0 8.9----29.61-- 55.8----
2024-02-23 06:00 pm NW 12.0 14.0----29.61+0.01 67.1 55.8----
2024-02-23 05:54 pm NW 9.9 11.1----29.61- 66.7 55.8----
2024-02-23 05:48 pm NW 8.0 8.9----29.61- 65.8 55.8----
2024-02-23 05:42 pmWNW 7.0 7.0----29.61- 65.7 55.8----
2024-02-23 05:36 pmWNW 8.0 8.0----29.60- 66.0 55.8----
2024-02-23 05:30 pmWNW 8.0 9.9----29.60- 66.0 55.6----
2024-02-23 05:24 pmWNW 12.0 13.0----29.60- 67.1 55.6----
2024-02-23 05:18 pmWNW 8.9 12.0----29.60- 67.3 55.6----
2024-02-23 05:12 pmWNW 7.0 9.9----29.59- 68.5 55.6----
2024-02-23 05:06 pmWNW 9.9 14.0----29.59- 69.4 55.4----
2024-02-23 05:00 pm W 5.1 7.0----29.59-0.03 70.5 55.4----
2024-02-23 04:54 pm W 7.0 9.9----29.60- 70.5 55.4----
2024-02-23 04:48 pm W 8.0 11.1----29.60- 70.5 55.4----
2024-02-23 04:42 pm W 11.1 13.0----29.60- 70.7 55.2----
2024-02-23 04:36 pm W 6.0 8.0----29.60- 70.0 55.2----
2024-02-23 04:30 pm W 6.0 8.9----29.59- 69.3 55.2----
2024-02-23 04:24 pm W 6.0 8.0----29.59- 69.4 55.2----
2024-02-23 04:18 pm W 5.1 8.0----29.59- 69.4 55.2----
2024-02-23 04:12 pmWNW 6.0 8.9----29.59- 69.1 55.4----
2024-02-23 04:06 pm W 7.0 11.1----29.59- 70.2 55.2----
2024-02-23 04:00 pmWSW 5.1 8.0----29.59-0.04 71.4 55.2----
2024-02-23 03:54 pm W 8.0 11.1----29.59- 70.7 55.2----
2024-02-23 03:48 pm W 7.0 9.9----29.59- 69.1 55.2----
2024-02-23 03:42 pm W 8.9 13.0----29.59- 70.2 55.2----
2024-02-23 03:36 pmWNW 9.9 15.0----29.59- 68.5 55.2----
2024-02-23 03:30 pmWNW 12.0 18.1----29.59- 69.6 55.2----
2024-02-23 03:24 pm W 7.0 9.9----29.60- 69.4 55.2----
2024-02-23 03:18 pm W 9.9 15.0----29.59- 70.2 55.2----
2024-02-23 03:12 pm W 8.9 14.0----29.59- 69.8 55.2----
2024-02-23 03:06 pm W 11.1 15.0----29.60- 69.6 55.2----
2024-02-23 03:00 pm W 8.9 15.0----29.60-0.07 69.3 55.2----
2024-02-23 02:54 pm W 7.0 11.1----29.59- 69.1 55.2----
2024-02-23 02:48 pm W 11.1 17.1----29.60- 68.4 55.2----
2024-02-23 02:42 pm W 7.0 9.9----29.60- 67.8 55.2----
2024-02-23 02:36 pm W 6.0 8.9----29.61- 67.8 55.2----
2024-02-23 02:30 pmWSW 5.1 9.9----29.61- 66.7 55.2----
2024-02-23 02:24 pmWSW 4.1 7.0----29.61- 65.1 55.2----
2024-02-23 02:18 pmWSW 5.1 8.0----29.61- 64.2 55.2----
2024-02-23 02:12 pmWSW 5.1 8.0----29.61- 63.7 55.2----
2024-02-23 02:06 pm SW 6.0 8.0----29.62- 62.4 55.2----
2024-02-23 02:00 pm SW 5.1 8.9----29.62-0.06 61.5 55.2----
2024-02-23 01:54 pm SW 6.0 8.9----29.62- 61.2 55.2----
2024-02-23 01:48 pmSSW 6.0 8.0----29.62- 61.0 55.4----
2024-02-23 01:42 pm SW 6.0 8.9----29.63- 61.5 55.4----
2024-02-23 01:36 pm SW 7.0 11.1----29.63- 61.5 55.4----
2024-02-23 01:30 pm SW 9.9 12.0----29.63- 61.5 55.4----
2024-02-23 01:24 pm SW 8.9 13.0----29.64- 61.9 55.4----
2024-02-23 01:18 pm SW 9.9 17.1----29.64- 62.6 55.4----
2024-02-23 01:12 pm SW 12.0 17.1----29.63- 63.1 55.4----
2024-02-23 01:06 pm SW 11.1 14.0----29.63- 63.1 55.4----
2024-02-23 01:00 pm SW 11.1 17.1----29.64-0.08 63.0 55.4----
2024-02-23 12:54 pm SW 9.9 15.9----29.64- 62.6 55.4----
2024-02-23 12:48 pm SW 8.9 14.0----29.65- 62.2 55.4----
2024-02-23 12:42 pm SW 8.0 15.9----29.65- 61.9 55.4----
2024-02-23 12:36 pm SW 8.0 12.0----29.66- 61.3 55.4----
2024-02-23 12:30 pm SW 8.9 12.0----29.66- 61.0 55.4----
2024-02-23 12:24 pm SW 9.9 15.9----29.66- 61.0 55.4----
2024-02-23 12:18 pm SW 9.9 15.0----29.66- 61.0 55.6----
2024-02-23 12:12 pmSSW 8.9 14.0----29.66- 61.2 55.6----
2024-02-23 12:06 pm SW 11.1 18.1----29.67- 61.3 55.6----
2024-02-23 12:00 pm SW 14.0 19.0----29.67-0.05 62.4 55.6----
2024-02-23 11:54 am SW 12.0 17.1----29.67- 62.8 55.6----
2024-02-23 11:48 am SW 13.0 20.0----29.67- 62.8 55.6----
2024-02-23 11:42 am SW 13.0 19.0----29.68- 61.9 55.6----
2024-02-23 11:36 am SW 12.0 21.0----29.68- 62.4 55.6----
2024-02-23 11:30 am SW 13.0 19.0----29.68- 62.6 55.6----
2024-02-23 11:24 am SW 11.1 15.9----29.68- 62.2 55.4----
2024-02-23 11:18 am SW 15.0 19.0----29.68- 62.2 55.4----
2024-02-23 11:12 am SW 13.0 21.0----29.69- 61.5 55.4----
2024-02-23 11:06 amSSW 11.1 15.9----29.69- 61.3 55.4----
2024-02-23 11:00 amSSW 12.0 15.9----29.69-0.04 61.5 55.4----
2024-02-23 10:54 amSSW 11.1 15.9----29.69- 61.5 55.4----
2024-02-23 10:48 amSSW 9.9 15.0----29.69- 62.1 55.4----
2024-02-23 10:42 am SW 9.9 15.0----29.70- 61.9 55.4----
2024-02-23 10:36 am SW 8.9 13.0----29.70- 61.0 55.6----
2024-02-23 10:30 am SW 8.9 14.0----29.70- 60.6 55.8----
2024-02-23 10:24 am SW 8.9 12.0----29.71- 59.9 55.8----
2024-02-23 10:18 am SW 9.9 14.0----29.71- 59.7 55.8----
2024-02-23 10:12 amSSW 9.9 15.0----29.71- 59.9 55.8----
2024-02-23 10:06 am SW 11.1 15.0----29.71- 60.8 55.8----
2024-02-23 10:00 am SW 8.9 14.0----29.72-0.02 60.4 55.8----
2024-02-23 09:54 am SW 9.9 14.0----29.71- 59.4 55.8----
2024-02-23 09:48 am SW 9.9 13.0----29.72- 58.6 55.8----
2024-02-23 09:42 am SW 8.9 14.0----29.72- 58.6 55.8----
2024-02-23 09:36 am SW 12.0 18.1----29.72- 58.8 55.8----
2024-02-23 09:30 am SW 12.0 17.1----29.72- 59.2 55.8----
2024-02-23 09:24 am SW 13.0 18.1----29.71- 59.5 55.8----
2024-02-23 09:18 am SW 14.0 20.0----29.71- 60.1 55.8----
2024-02-23 09:12 am SW 13.0 20.0----29.71- 58.8 55.8----
2024-02-23 09:06 amSSW 12.0 17.1----29.71- 58.3 55.8----
2024-02-23 09:00 am SW 15.0 22.0----29.72-0.03 58.3 55.8----
2024-02-23 08:54 am SW 14.0 18.1----29.72- 58.3 55.9----
2024-02-23 08:48 am SW 12.0 19.0----29.72- 58.5 55.9----
2024-02-23 08:42 am SW 12.0 18.1----29.73- 58.3 55.9----
2024-02-23 08:36 am SW 12.0 20.0----29.73- 58.6 55.9----
2024-02-23 08:30 am SW 12.0 15.9----29.73- 58.3 55.9----
2024-02-23 08:24 am SW 9.9 15.9----29.73- 58.3 55.9----
2024-02-23 08:18 am SW 11.1 15.0----29.73- 57.6 55.9----
2024-02-23 08:12 am SW 12.0 17.1----29.73- 57.4 55.9----
2024-02-23 08:06 am SW 9.9 15.9----29.73- 57.0 55.9----
2024-02-23 08:00 am SW 13.0 18.1----29.72-0.04 57.0 55.9----
2024-02-23 07:54 am SW 14.0 20.0----29.72- 56.8 55.9----
2024-02-23 07:48 am SW 12.0 18.1----29.73- 57.0 55.9----
2024-02-23 07:42 am SW 13.0 19.0----29.73- 56.8 55.9----
2024-02-23 07:36 am SW 11.1 15.9----29.73- 56.8 55.9----
2024-02-23 07:30 am SW 12.0 18.1----29.73- 56.7 55.9----
2024-02-23 07:24 am SW 12.0 18.1----29.73- 56.5 55.9----
2024-02-23 07:18 am SW 11.1 17.1----29.73- 56.3 55.9----
2024-02-23 07:12 am SW 9.9 17.1----29.73- 56.1 55.9----
2024-02-23 07:06 am SW 9.9 15.0----29.73- 55.9 55.9----
2024-02-23 07:00 am SW 11.1 15.0----29.74-0.03 55.9 55.9----
2024-02-23 06:54 am SW 11.1 18.1----29.74- 55.9 55.9----
2024-02-23 06:48 am SW 8.9 15.9----29.74- 55.9 55.9----
2024-02-23 06:42 am SW 9.9 13.0----29.74- 55.9 55.9----
2024-02-23 06:36 am SW 12.0 18.1----29.74- 56.1 55.9----
2024-02-23 06:30 am SW 11.1 15.9----29.74- 55.9 55.9----
2024-02-23 06:24 am SW 11.1 15.0----29.74- 55.9 55.9----
2024-02-23 06:18 am SW 13.0 19.0----29.74- 56.1 55.8----
2024-02-23 06:12 am SW 11.1 15.9----29.74- 56.1 55.8----
2024-02-23 06:06 am SW 12.0 17.1----29.75- 56.1 55.8----
2024-02-23 06:00 am SW 9.9 15.0----29.75-0.04 56.1 55.8----
2024-02-23 05:54 am SW 9.9 18.1----29.75- 56.3 55.6----
2024-02-23 05:48 amWSW 8.0 14.0----29.76- 55.9 55.6----
2024-02-23 05:42 am SW 8.0 12.0----29.75- 55.4 55.6----
2024-02-23 05:36 am SW 7.0 11.1----29.75- 55.6 55.6----
2024-02-23 05:30 amWSW 7.0 11.1----29.75- 55.8 55.4----
2024-02-23 05:24 am SW 7.0 12.0----29.76- 55.9 55.4----
2024-02-23 05:18 am SW 8.0 13.0----29.76- 56.1 55.4----
2024-02-23 05:12 amWSW 8.0 13.0----29.76- 56.1 55.4----
2024-02-23 05:06 amWSW 8.0 14.0----29.76- 56.3 55.4----
2024-02-23 05:00 am SW 8.9 14.0----29.76-0.06 56.5 55.4----
2024-02-23 04:54 am SW 8.9 14.0----29.75- 56.7 55.4----
2024-02-23 04:48 am SW 11.1 14.0----29.75- 56.7 55.4----
2024-02-23 04:42 am SW 11.1 15.0----29.76- 56.8 55.4----
2024-02-23 04:36 am SW 9.9 15.0----29.76- 56.8 55.4----
2024-02-23 04:30 am SW 11.1 14.0----29.75- 56.8 55.6----
2024-02-23 04:24 am SW 9.9 14.0----29.76- 56.8 55.4----
2024-02-23 04:18 am SW 11.1 15.0----29.76- 56.7 55.4----
2024-02-23 04:12 am SW 11.1 14.0----29.76- 56.5 55.2----
2024-02-23 04:06 am SW 8.9 12.0----29.76- 56.3 55.0----
2024-02-23 04:00 am SW 8.0 13.0----29.77-0.08 56.3 55.0----
2024-02-23 03:54 am SW 8.0 12.0----29.77- 55.9 55.0----
2024-02-23 03:48 am SW 8.9 12.0----29.77- 55.6 55.0----
2024-02-23 03:42 am SW 8.0 9.9----29.78- 55.2 55.0----
2024-02-23 03:36 am SW 7.0 9.9----29.78- 55.2 55.0----
2024-02-23 03:30 am SW 8.0 11.1----29.78- 55.4 55.0----
2024-02-23 03:24 am SW 7.0 9.9----29.79- 55.4 55.0----
2024-02-23 03:18 am SW 6.0 11.1----29.79- 55.4 55.0----
2024-02-23 03:12 am SW 6.0 9.9----29.79- 55.6 54.9----
2024-02-23 03:06 amWSW 7.0 12.0----29.79- 55.4 55.0----
2024-02-23 03:00 amWSW 7.0 11.1----29.80-0.07 55.4 54.9----
2024-02-23 02:54 amWSW 7.0 9.9----29.80- 55.4 54.9----
2024-02-23 02:48 amWSW 7.0 12.0----29.80- 55.6 54.9----
2024-02-23 02:42 am SW 8.0 12.0----29.80- 55.6 54.9----
2024-02-23 02:36 amWSW 7.0 12.0----29.80- 55.8 54.9----
2024-02-23 02:30 am SW 8.0 13.0----29.81- 55.8 54.9----
2024-02-23 02:24 amWSW 6.0 9.9----29.81- 55.6 54.9----
2024-02-23 02:18 am SW 8.9 13.0----29.81- 55.8 54.7----
2024-02-23 02:12 am SW 7.0 12.0----29.81- 55.8 54.7----
2024-02-23 02:06 am SW 7.0 9.9----29.82- 55.6 54.7----
2024-02-23 02:00 amWSW 7.0 11.1----29.83-0.04 55.6 54.7----
2024-02-23 01:54 amWSW 6.0 11.1----29.83- 55.4 54.9----
2024-02-23 01:48 amWSW 6.0 12.0----29.83- 55.4 54.9----
2024-02-23 01:42 amWSW 6.0 9.9----29.83- 55.4 54.9----
2024-02-23 01:36 amWSW 7.0 11.1----29.84- 55.6 55.0----
2024-02-23 01:30 amWSW 7.0 11.1----29.84- 55.8 55.0----
2024-02-23 01:24 amWSW 8.0 12.0----29.84- 55.9 55.0----
2024-02-23 01:18 amWSW 8.0 12.0----29.84- 56.1 55.0----
2024-02-23 01:12 amWSW 7.0 12.0----29.85- 56.1 55.0----
2024-02-23 01:06 amWSW 8.0 13.0----29.85- 56.3 55.0----
2024-02-23 01:00 amWSW 8.9 14.0----29.85-0.01 56.3 55.0----
2024-02-23 12:54 am W 7.0 12.0----29.85- 55.9 55.0----
2024-02-23 12:48 amWSW 6.0 9.9----29.85- 56.1 55.0----
2024-02-23 12:42 amWSW 7.0 9.9----29.85- 56.3 55.0----
2024-02-23 12:36 am W 5.1 8.0----29.86- 56.7 55.0----
2024-02-23 12:30 am W 6.0 9.9----29.86- 57.0 55.2----
2024-02-23 12:24 am W 7.0 9.9----29.86- 57.0 55.2----
2024-02-23 12:18 am W 6.0 8.9----29.86- 57.0 55.2----
2024-02-23 12:12 am W 6.0 9.9----29.87- 57.2 55.2----
2024-02-23 12:06 am W 8.9 12.0----29.87- 57.4 55.2----
2024-02-23 12:00 am W 7.0 13.0----29.87-0.03 57.6 55.2----
2024-02-22 11:54 pm W 6.0 8.9----29.87- 57.2 55.4----
2024-02-22 11:48 pmWSW 5.1 8.0----29.87- 56.8 55.4----
2024-02-22 11:42 pmWSW 5.1 8.0----29.87- 57.0 55.4----
2024-02-22 11:36 pmWSW 5.1 8.0----29.87- 57.2 55.4----
2024-02-22 11:30 pmWSW 5.1 7.0----29.87- 57.2 55.4----
2024-02-22 11:24 pmWSW 5.1 8.0----29.87- 57.0 55.6----
2024-02-22 11:18 pmWSW 2.9 7.0----29.87- 57.2 55.6----
2024-02-22 11:12 pm SW 5.1 8.9----29.87- 57.4 55.6----
2024-02-22 11:06 pm SW 7.0 13.0----29.87- 57.6 55.6----
2024-02-22 11:00 pm SW 9.9 13.0----29.87-0.05 57.7 55.6----
2024-02-22 10:54 pm SW 9.9 15.0----29.87- 57.9 55.6----
2024-02-22 10:48 pm SW 9.9 17.1----29.87- 58.1 55.6----
2024-02-22 10:42 pm SW 11.1 15.0----29.87- 58.3 55.6----
2024-02-22 10:36 pm SW 11.1 17.1----29.87- 58.3 55.6----
2024-02-22 10:30 pm SW 11.1 15.9----29.87- 58.5 55.6----
2024-02-22 10:24 pm SW 12.0 19.0----29.86- 58.5 55.6----
2024-02-22 10:18 pmSSW 13.0 21.0----29.86- 58.6 55.8----
2024-02-22 10:12 pmSSW 13.0 20.0----29.86- 58.6 55.8----
2024-02-22 10:06 pmSSW 12.0 18.1----29.85- 58.6 55.8----
2024-02-22 10:00 pmSSW 11.1 15.9----29.86-0.07 58.5 55.8----
2024-02-22 09:54 pmSSW 9.9 15.9----29.87- 58.6 55.8----